Hourly Data Report for August 18, 2020

SVARTEVAEG
NUNAVUT
Current Station Operator: ECCC - MSC

81°09'39.000" N
91°48'59.060" W
72.00 m
2403833
71872
NSG

Download Data

Hourly Data (August 2020)
Hourly Data Report for August 18, 2020
TIME Temp Definition
°C
Dew Point Definition
°C
Rel Hum Definition
%
Wind Dir Definition
10's deg

Wind Spd Definition
km/h
Visibility Definition
km
Stn Press Definition
kPa
Hmdx Definition


Wind Chill Definition


Weather Definition


00:00 4.9 -0.4 68 34 16   100.69     LegendNANA
01:00 6.1 -0.3 64 34 14   100.66     LegendNANA
02:00 4.3 -0.2 72 34 15   100.65     LegendNANA
03:00 4.7 -0.3 70 35 13   100.65     LegendNANA
04:00 2.9 -0.3 80 35 12   100.65     LegendNANA
05:00 3.4 0.0 79 35 15   100.65     LegendNANA
06:00 4.7 -0.1 71 35 13   100.63     LegendNANA
07:00 4.9 -0.3 69 36 13   100.59     LegendNANA
08:00 2.6 -0.2 82 1 9   100.60     LegendNANA
09:00 2.7 0.2 84 35 12   100.59     LegendNANA
10:00 2.4 0.0 84 35 12   100.56     LegendNANA
11:00 2.7 0.6 86 35 14   100.55     LegendNANA
12:00 2.9 0.1 82 35 17   100.51     LegendNANA
13:00 3.6 0.3 79 35 19   100.49     LegendNANA
14:00 2.3 -0.1 84 35 16   100.48     LegendNANA
15:00 2.2 -0.1 85 35 17   100.46     LegendNANA
16:00 1.9 -0.1 86 35 17   100.42     LegendNANA
17:00 1.6 -0.2 88 35 17   100.39     LegendNANA
18:00 1.5 0.2 91 35 19   100.36     LegendNANA
19:00 0.9 -0.1 94 34 19   100.34     LegendNANA
20:00 1.0 0.2 94 34 16   100.32     LegendNANA
21:00 0.7 -0.5 91 34 17   100.32     LegendNANA
22:00 1.1 -0.9 86 35 11   100.31     LegendNANA
23:00 0.6 -0.4 93 34 10   100.29     LegendNANA

Notes on Data Quality.

Legend

  • E = Estimated
  • M = Missing
  • NA = Not Available*
  • [empty] = Indicates an unobserved value
Date modified: